Lapse_Rate
6.8 6.9 6.8 6.8 6.9 7.5 8.1 8.6 8.9 8.9 8.8 8.9 8.5 8.6 8.7 8.7 8.8 8.5 8.3 8.1 8.1 7.7 7.6 7.5 7.4 7.4 7.2 7.1 7.0 6.9 6.9 7.1 6.9 6.8 6.7 6.7 7.0 6.9 6.8 6.7 6.8 6.7 6.7 6.7 6.7 6.6 6.4 6.4 6.5
6.8 6.9 6.8 6.8 6.8 7.5 8.3 8.5 9.0 9.0 8.9 8.9 8.9 8.6 8.7 8.8 8.8 8.8 8.6 8.5 8.2 7.8 7.6 7.4 7.4 7.4 7.2 7.0 6.8 6.8 6.8 7.0 6.9 6.8 6.7 6.8 6.9 7.0 6.9 6.8 6.7 6.7 6.7 6.7 6.7 6.6 6.4 6.4 6.3
6.7 6.8 6.8 6.4 6.7 7.8 8.6 8.5 8.4 8.5 8.5 8.4 9.0 8.4 8.6 8.6 8.5 8.7 8.6 8.2 7.9 7.7 7.6 7.5 7.4 7.4 7.3 7.0 6.8 6.6 6.7 6.8 7.0 6.8 6.8 6.9 7.0 7.1 7.0 6.8 6.7 6.7 6.7 6.7 6.7 6.6 6.4 6.3 6.2
6.6 6.7 6.5 6.6 7.0 8.2 8.5 8.6 8.3 8.5 9.0 9.0 8.8 8.5 8.2 8.0 8.3 8.4 8.2 7.8 7.7 7.7 7.6 7.6 7.4 7.3 7.3 7.0 6.7 6.5 6.5 6.6 6.9 6.9 6.8 6.9 6.9 7.0 7.0 6.8 6.7 6.6 6.7 6.8 6.7 6.6 6.3 6.2 6.2
6.3 6.4 6.5 6.7 7.2 8.1 8.2 8.2 8.2 7.7 9.1 8.9 8.9 8.6 8.2 8.2 8.0 8.1 8.0 7.7 7.5 7.7 7.6 7.6 7.4 7.2 7.2 7.0 6.7 6.5 6.3 6.4 6.7 6.8 6.8 6.9 7.0 6.9 6.8 6.9 6.7 6.6 6.5 6.7 6.7 6.6 6.3 6.3 6.2
6.2 6.0 6.1 6.8 7.2 7.9 8.3 8.3 8.3 8.1 8.8 8.5 8.9 8.5 8.0 7.9 7.8 8.0 7.8 7.6 7.5 7.6 7.7 7.6 7.4 7.1 7.0 6.9 6.7 6.5 6.4 6.3 6.4 6.7 6.8 6.9 7.0 7.1 7.0 6.8 6.7 6.7 6.5 6.5 6.7 6.7 6.5 6.3 6.3
6.4 5.7 6.1 6.6 7.4 8.1 8.4 7.9 8.3 9.0 9.1 8.5 8.3 8.7 8.2 7.6 7.4 7.5 7.9 7.7 7.6 7.7 7.7 7.7 7.6 7.2 7.0 6.7 6.6 6.4 6.4 6.3 6.3 6.5 6.8 6.9 6.9 6.9 7.1 6.9 6.6 6.6 6.5 6.4 6.5 6.5 6.6 6.4 6.3
6.2 5.5 5.9 6.2 7.2 8.3 8.1 7.8 7.9 8.4 9.2 8.6 7.9 8.0 7.9 7.7 7.3 7.3 7.7 7.9 7.7 7.7 7.7 7.6 7.6 7.3 7.0 6.7 6.5 6.4 6.3 6.4 6.3 6.3 6.6 6.8 6.9 6.9 7.0 7.0 6.7 6.5 6.5 6.4 6.3 6.3 6.4 6.4 6.3
6.1 5.3 5.7 6.5 7.1 8.7 7.9 7.6 7.9 7.7 8.6 8.5 8.1 7.7 7.9 7.7 7.5 7.2 7.6 7.8 7.7 7.7 7.7 7.7 7.5 7.3 7.0 6.8 6.6 6.4 6.3 6.3 6.3 6.3 6.3 6.6 6.8 6.9 6.9 6.9 6.8 6.6 6.5 6.4 6.2 6.2 6.2 6.2 6.3
5.9 5.7 6.1 7.0 7.5 8.1 7.6 7.4 7.4 7.3 7.7 8.0 8.2 7.8 7.7 7.5 7.4 7.3 7.5 7.6 7.6 7.5 7.7 7.6 7.4 7.3 6.9 6.8 6.6 6.4 6.3 6.3 6.3 6.3 6.3 6.3 6.5 6.7 6.8 6.8 6.8 6.7 6.5 6.3 6.2 6.1 6.1 6.2 6.2
6.3 6.3 6.7 7.1 7.6 7.7 7.4 7.5 7.1 7.0 7.4 7.6 7.9 8.1 7.6 7.4 7.3 7.2 7.2 7.4 7.4 7.4 7.5 7.6 7.5 7.4 7.0 6.8 6.7 6.5 6.4 6.4 6.4 6.4 6.3 6.3 6.4 6.5 6.8 6.8 6.7 6.6 6.5 6.4 6.3 6.2 6.0 6.0 6.1
6.2 6.3 6.6 7.0 7.2 7.1 7.1 7.1 7.1 7.0 7.3 7.0 6.7 7.1 7.1 7.1 7.1 7.2 7.1 7.2 7.4 7.5 7.6 7.7 7.6 7.6 7.2 6.9 6.7 6.6 6.4 6.4 6.5 6.4 6.4 6.5 6.6 6.5 6.6 6.7 6.5 6.6 6.5 6.3 6.2 6.2 6.0 5.9 5.9
6.1 6.6 6.5 6.7 7.2 7.2 6.9 6.9 6.8 6.9 7.3 7.3 7.0 6.6 6.6 6.9 7.1 7.1 7.0 7.1 7.4 7.6 7.7 7.3 7.4 7.4 7.3 7.1 6.8 6.7 6.5 6.4 6.4 6.5 6.4 6.5 6.6 6.7 6.5 6.5 6.4 6.5 6.5 6.3 6.2 6.2 6.1 6.1 6.1
6.4 6.3 6.4 6.3 6.7 7.1 6.5 6.9 6.6 6.9 7.2 7.1 7.3 7.0 6.6 6.4 6.7 6.8 6.8 7.1 7.3 7.3 7.5 7.1 7.0 7.4 7.6 7.2 6.9 6.8 6.6 6.4 6.5 6.6 6.4 6.4 6.4 6.5 6.6 6.5 6.4 6.3 6.3 6.3 6.3 6.3 6.2 6.2 6.3
5.9 6.1 6.4 6.5 6.6 7.0 6.8 6.8 6.7 6.7 7.0 7.0 7.2 7.4 7.1 6.9 6.7 6.7 6.8 6.9 7.0 6.7 6.8 7.1 6.8 6.9 7.5 7.4 7.0 6.9 6.6 6.5 6.5 6.5 6.5 6.3 6.3 6.3 6.5 6.5 6.5 6.4 6.4 6.2 6.2 6.3 6.1 6.1 6.0
6.0 5.9 6.2 7.0 6.9 6.9 7.0 6.7 7.5 7.0 6.9 7.0 7.4 7.7 7.7 7.4 7.1 7.0 6.8 6.7 6.7 6.7 6.8 6.7 6.7 7.1 7.3 7.5 7.1 7.0 6.9 6.9 6.5 6.4 6.6 6.4 6.2 6.3 6.4 6.6 6.7 6.6 6.7 6.7 6.5 6.3 6.3 6.1 6.1
5.9 5.9 5.9 6.5 6.7 7.0 7.2 7.1 8.1 8.1 7.7 7.8 8.2 8.4 8.2 7.9 7.8 7.5 7.3 7.3 7.1 7.0 7.0 7.0 6.7 6.9 7.2 7.5 7.2 7.1 6.9 7.0 6.8 6.6 6.6 6.4 6.3 6.2 6.2 6.4 6.5 6.6 6.6 6.6 6.5 6.6 6.4 6.2 6.2
5.2 5.4 5.6 5.8 6.2 7.0 7.3 7.0 7.3 7.7 7.8 7.7 7.8 8.1 8.1 7.9 7.6 7.6 7.7 7.4 7.0 7.0 6.9 7.1 7.0 7.0 7.2 7.5 7.6 7.5 7.3 7.2 7.1 7.1 6.9 6.5 6.4 6.3 6.2 6.2 6.2 6.4 6.5 6.6 6.5 6.5 6.3 6.1 5.9
6.1 5.9 5.9 6.1 6.4 6.8 7.2 7.2 7.1 7.5 7.7 7.5 7.3 7.3 7.3 7.5 7.6 7.5 7.4 7.2 7.1 7.0 6.8 7.2 7.2 7.3 7.4 7.7 7.8 7.6 7.3 7.2 7.1 7.0 7.0 6.8 6.6 6.4 6.3 6.2 6.1 6.2 6.3 6.4 6.5 6.4 6.2 6.1 6.0
5.9 6.2 6.1 6.2 6.3 6.8 6.9 6.8 7.0 7.2 7.6 7.3 7.2 7.3 7.4 7.4 7.4 7.3 7.5 7.7 7.5 7.3 7.1 7.1 7.4 7.3 7.4 7.7 7.7 7.6 7.2 7.1 7.1 7.0 7.0 6.9 6.8 6.6 6.6 6.4 6.3 6.3 6.2 6.2 6.3 6.4 6.4 6.2 6.0
5.9 5.9 6.1 6.3 6.8 7.1 6.9 6.8 7.0 7.0 6.9 7.3 7.4 7.5 7.5 7.7 7.7 7.8 8.0 7.9 7.8 7.6 7.4 7.3 7.7 7.6 7.5 7.6 7.6 7.6 7.3 7.2 7.4 7.4 7.2 7.2 7.0 6.9 6.9 6.7 6.4 6.3 6.1 6.1 6.2 6.1 6.1 6.1 6.1
5.5 6.2 6.0 5.9 6.4 6.2 7.5 7.0 7.1 7.4 7.8 7.3 7.4 7.4 7.6 7.4 7.6 8.0 8.2 8.1 7.9 7.6 7.6 7.4 7.5 7.7 7.7 7.5 7.5 7.6 7.7 7.4 7.4 7.4 7.3 7.2 7.1 7.0 7.0 6.9 6.7 6.4 6.3 6.2 5.8 5.9 5.8 5.6 5.7
5.2 6.3 6.1 6.3 6.6 6.8 7.2 7.7 6.3 7.0 7.2 7.5 7.4 7.5 7.7 7.7 7.7 8.1 8.2 8.3 8.1 7.8 7.8 7.6 7.4 7.5 7.6 7.6 7.5 7.5 7.5 7.6 7.4 7.4 7.2 7.1 7.2 7.2 7.1 7.1 6.9 6.6 6.6 6.0 5.9 5.7 5.4 5.5 5.6
5.9 6.0 6.3 6.6 6.9 6.9 6.1 7.0 5.8 6.1 6.5 7.0 7.4 7.6 7.8 7.9 8.0 8.1 8.3 8.1 7.9 7.8 7.6 7.5 7.5 7.5 7.7 7.8 7.6 7.6 7.6 7.7 7.6 7.5 7.3 7.2 7.3 7.2 7.2 7.1 7.0 6.2 5.8 5.8 5.7 5.6 5.5 5.7 5.7
6.0 6.0 5.8 6.7 6.5 5.9 5.7 7.2 6.0 6.0 6.4 6.5 6.9 7.4 7.8 8.1 8.1 8.0 8.1 8.0 7.9 7.9 8.0 7.9 8.0 7.9 7.9 7.9 7.8 7.5 7.3 7.3 7.4 7.4 7.3 7.2 7.3 7.2 7.2 7.0 6.5 6.1 6.1 5.7 5.8 5.6 5.5 5.6 5.5
6.0 6.0 6.1 5.7 5.7 5.7 6.0 7.9 5.9 6.7 6.7 6.7 6.6 7.0 7.5 7.5 7.4 7.4 7.7 7.9 7.8 8.0 8.1 8.1 8.1 8.1 8.2 8.0 8.0 7.5 7.0 7.0 6.9 7.0 7.1 7.2 7.2 7.2 7.3 6.8 6.3 6.2 5.9 5.7 5.7 5.3 5.5 5.5 5.2
6.2 6.6 6.2 6.7 6.8 7.1 6.5 7.1 6.8 6.5 6.4 6.6 6.5 6.5 6.8 7.4 7.5 7.4 7.6 7.7 7.7 8.0 8.3 8.4 8.4 8.2 8.5 8.3 7.8 7.4 6.9 6.7 6.7 6.7 6.9 7.0 6.9 7.2 6.5 6.2 6.1 6.0 6.2 6.0 5.8 5.6 5.5 5.4 5.6
6.9 6.7 7.1 7.4 6.8 6.8 6.4 6.6 6.8 6.2 6.4 6.7 6.7 6.7 7.1 7.5 7.5 7.8 7.8 7.7 7.8 7.8 8.0 8.2 8.6 8.5 8.4 8.4 7.9 7.2 7.0 6.9 6.7 6.8 6.8 6.8 6.8 6.4 6.1 6.0 5.8 6.2 6.0 5.7 5.9 5.8 5.7 5.6 5.6
7.0 6.9 7.2 7.2 7.0 7.0 6.7 6.6 6.4 6.3 6.7 6.6 6.9 7.2 7.5 7.3 7.7 7.7 7.5 7.6 7.8 7.9 7.8 8.0 8.3 8.4 8.5 8.3 7.9 7.6 7.3 7.1 6.8 6.9 6.9 6.3 6.3 6.0 5.9 5.7 5.8 5.8 5.8 5.8 5.8 5.9 5.8 5.8 5.8
6.6 7.3 6.5 6.0 6.9 6.7 6.2 7.0 7.4 7.2 7.0 6.7 6.6 6.8 7.5 7.9 7.8 7.9 7.9 8.1 7.6 7.7 7.8 8.1 8.3 8.3 8.3 8.2 7.8 7.7 7.3 7.2 7.0 7.3 7.2 7.0 6.3 6.2 6.2 6.0 5.8 5.9 5.7 5.9 5.9 5.8 5.9 6.1 5.8
Wind_Speed
7 8 1 4 3 5 4 6 5 9 7 3 11 8 15 9 7 5 4 12 18 17 18 19 20 21 21 22 22 20 20 19 19 20 18 17 16 16 15 16 15 15 14 13 12 11 11 10 9
5 3 4 2 3 2 6 6 6 10 7 7 14 8 4 4 3 8 5 9 20 16 18 18 21 22 22 22 22 21 20 19 19 19 18 17 16 16 14 14 13 13 13 12 12 11 10 8 7
3 1 3 3 4 5 5 5 8 13 8 8 4 4 5 6 5 8 10 16 15 15 17 18 22 22 22 22 22 21 20 20 19 19 19 17 16 15 15 13 11 11 12 11 11 11 9 7 6
3 4 4 2 7 8 5 12 7 10 3 7 6 7 4 5 14 10 16 17 15 12 16 20 22 22 22 22 22 22 21 21 20 19 19 17 15 14 14 13 11 9 11 11 10 10 9 7 5
3 3 1 2 6 6 6 7 11 11 5 5 6 4 4 3 14 21 18 16 16 12 13 19 21 22 22 22 22 22 22 22 21 20 19 18 17 14 14 13 10 9 9 9 9 9 8 7 5
3 3 1 4 5 6 7 9 10 18 6 6 7 9 4 11 19 17 17 15 15 14 14 16 20 21 21 22 22 23 22 22 21 20 19 18 18 17 14 13 12 10 9 8 8 8 6 5 4
6 3 5 5 9 9 5 9 6 5 3 5 13 6 5 7 11 16 13 14 13 12 11 14 16 18 21 22 23 24 23 22 22 21 20 19 18 17 16 15 13 12 9 7 6 6 6 4 3
5 4 4 4 6 10 4 11 11 8 1 5 6 7 9 10 11 14 11 10 11 10 11 11 13 16 16 17 23 23 23 23 22 22 22 20 19 18 17 15 14 12 10 8 6 5 4 4 3
4 1 4 5 6 7 8 9 7 16 2 3 1 7 16 15 17 17 13 7 8 7 9 10 10 13 14 14 17 20 22 23 23 21 21 20 13 16 17 16 15 14 11 10 8 6 5 4 4
4 4 9 8 9 10 5 7 12 6 11 6 7 16 16 18 17 17 14 12 11 11 10 11 11 11 12 13 14 14 15 15 15 15 16 13 13 14 14 15 16 15 13 11 9 7 5 5 5
5 8 4 10 16 8 6 12 3 5 7 4 13 20 21 21 19 19 17 19 20 17 11 12 11 10 11 8 11 11 11 11 12 14 14 12 11 11 11 12 12 13 13 11 10 8 7 8 7
6 7 7 9 16 6 6 8 10 4 9 1 6 21 22 19 20 18 18 17 12 16 15 14 14 13 11 9 7 9 7 10 9 12 16 12 8 8 7 7 9 11 12 9 10 9 10 10 10
12 12 10 11 15 9 8 10 12 9 10 6 6 10 8 16 17 16 18 17 13 14 15 15 15 14 13 10 7 8 7 8 11 13 16 14 8 6 8 6 9 9 11 10 7 8 7 7 8
6 6 10 10 14 7 7 11 4 11 9 7 6 4 9 8 14 15 9 9 14 15 16 16 16 15 14 11 11 9 9 11 12 13 14 16 12 7 6 5 6 8 11 11 10 6 4 5 6
14 16 16 18 8 8 1 14 8 10 8 9 8 9 7 11 11 11 17 14 19 17 18 18 18 15 15 14 11 9 9 12 7 11 15 17 15 12 9 6 6 9 13 12 9 6 4 3 3
4 3 8 14 17 7 7 22 8 7 6 10 11 9 9 8 11 13 12 10 18 17 19 18 15 16 15 14 11 9 8 9 8 11 13 16 16 15 8 6 6 11 9 8 4 3 2 2 2
6 11 11 12 6 5 9 20 9 7 8 10 10 10 10 10 11 10 11 10 15 18 19 18 18 18 17 11 10 9 10 8 7 11 12 15 16 15 10 5 5 10 5 4 4 2 3 3 3
11 14 6 6 1 8 12 23 10 8 8 11 11 11 11 11 13 12 11 8 14 17 19 20 16 17 16 10 8 5 8 6 9 7 8 13 13 13 9 5 4 8 5 4 4 3 3 2 2
5 11 14 8 7 6 13 13 9 9 7 12 14 13 13 15 16 9 9 9 12 15 17 19 18 16 13 10 11 8 11 7 5 6 9 10 11 13 9 4 5 4 5 6 5 2 3 0 2
11 9 18 6 7 3 10 19 15 10 14 10 12 17 18 8 7 10 8 7 16 19 19 19 19 19 16 12 11 6 8 5 6 6 6 13 13 13 9 8 6 5 4 4 4 3 2 2 2
20 21 24 21 4 11 8 15 12 9 9 8 8 10 9 11 10 8 7 10 7 17 19 21 22 22 20 16 8 5 5 3 4 7 5 4 9 11 9 7 5 5 4 4 3 4 4 3 1
20 19 20 18 5 12 7 15 18 12 16 10 10 8 10 10 9 7 9 9 10 15 19 21 21 21 19 18 16 19 14 11 5 6 5 4 7 7 10 9 7 7 5 6 4 4 3 3 3
18 16 16 12 9 8 9 3 17 17 16 18 13 10 10 11 10 9 10 14 14 12 15 18 19 19 18 19 18 14 13 6 8 7 9 8 6 8 10 10 7 7 5 5 6 4 4 2 2
14 13 15 10 8 12 23 14 21 16 19 7 7 9 11 10 10 9 8 11 14 8 9 14 16 17 17 18 17 18 16 12 11 10 8 7 6 6 7 8 7 7 7 6 5 5 4 3 2
21 17 10 8 10 17 20 10 23 8 21 20 13 13 12 10 8 8 6 8 9 9 12 12 15 17 18 18 16 15 14 15 16 14 10 12 7 5 7 9 7 4 5 5 4 6 4 3 3
20 21 12 10 16 21 19 9 21 25 17 17 12 17 13 9 7 9 10 9 13 16 16 16 18 15 15 15 12 10 11 9 9 13 12 11 10 8 8 9 10 8 7 5 4 4 3 3 4
21 15 23 22 17 8 8 7 20 26 23 21 20 15 17 15 10 11 11 9 10 12 16 19 19 16 15 14 11 11 11 10 10 10 12 9 10 9 10 10 10 7 7 6 5 4 4 4 4
23 17 13 12 18 20 10 18 12 24 28 22 20 17 16 11 12 11 11 9 12 14 13 14 17 18 16 13 12 12 12 11 11 12 12 12 10 10 11 10 9 7 6 7 6 5 4 5 2
8 16 20 11 11 13 16 16 17 21 16 12 13 14 14 17 13 12 10 9 11 13 15 16 16 17 16 15 13 13 11 12 12 12 11 12 11 10 9 8 9 8 7 7 6 5 5 4 2
6 4 4 5 14 3 8 10 4 26 21 7 8 8 7 7 9 8 8 8 11 14 14 15 14 15 14 12 12 12 13 14 14 14 14 14 13 11 12 9 9 8 7 6 6 5 4 4 2
Wind_Direction
320 300 125 43 39 69 262 263 288 292 356 331 135 153 191 150 153 201 352 130 136 144 153 164 157 152 148 142 139 138 137 134 128 124 122 117 115 110 109 110 109 109 110 110 109 105 100 96 92
333 332 41 82 93 46 283 236 270 261 182 111 106 137 20 157 97 111 92 144 148 143 151 163 161 155 152 147 145 143 144 140 136 131 126 123 121 117 114 114 116 114 116 118 113 108 107 102 90
300 30 91 138 159 190 220 253 316 321 159 199 102 84 107 144 98 132 131 142 136 139 153 162 161 156 154 151 148 148 148 146 142 137 132 132 130 128 123 124 120 120 124 124 123 120 116 113 99
37 7 18 136 231 256 233 286 298 310 165 104 129 73 46 244 150 138 135 137 135 144 154 159 158 158 158 155 154 152 152 151 148 145 140 138 137 135 132 131 132 132 131 130 129 129 133 135 121
39 64 339 258 255 267 278 270 274 284 253 134 130 114 98 356 117 131 140 147 145 146 149 158 159 161 161 160 159 156 158 155 155 152 147 141 140 142 141 140 143 142 136 137 140 145 148 148 145
8 92 33 257 259 280 294 272 270 270 239 140 103 123 152 143 136 150 149 151 149 147 150 160 164 165 163 164 163 161 161 159 160 157 152 148 148 150 150 149 151 154 155 153 157 157 159 163 168
150 92 234 258 283 297 277 305 296 220 212 178 144 104 129 149 144 145 147 141 140 143 148 157 166 168 166 169 167 165 163 163 164 161 160 158 158 158 159 159 161 160 167 173 175 172 166 184 209
124 128 253 250 268 279 232 338 326 284 208 107 152 153 175 178 136 115 116 124 131 142 151 157 162 166 170 175 171 168 167 167 169 166 166 167 166 166 166 166 169 168 172 183 194 194 195 200 236
118 151 242 237 230 248 335 335 332 312 126 59 79 146 156 139 125 117 119 117 127 143 158 161 163 169 170 170 173 169 172 171 171 169 171 169 171 172 170 175 176 178 181 187 200 204 217 234 252
146 169 222 212 246 279 285 313 314 350 325 31 63 102 127 135 136 138 149 155 165 172 180 175 172 171 166 171 169 167 173 174 171 170 171 170 174 176 173 181 185 186 186 191 199 214 228 248 263
234 231 229 262 268 260 272 293 267 322 320 269 145 142 150 154 156 160 168 170 182 182 174 180 175 172 171 173 167 168 170 170 174 168 167 172 175 178 182 183 188 192 194 194 199 210 222 234 243
241 259 239 267 270 272 256 276 282 226 242 80 235 165 166 170 169 170 176 184 168 178 180 176 178 175 179 167 175 173 170 175 176 176 172 170 175 183 187 183 183 184 191 201 206 209 226 238 241
246 265 269 256 265 266 263 255 259 258 264 263 170 192 217 181 184 183 185 187 175 177 181 182 176 180 181 171 175 177 181 182 181 181 183 180 182 182 175 182 182 189 188 199 215 217 220 229 231
270 258 260 264 271 263 259 270 198 271 259 279 306 165 179 216 210 192 188 179 184 185 183 176 183 181 181 182 180 183 183 180 179 187 190 185 186 174 174 178 188 186 193 207 209 213 225 229 224
255 260 273 261 253 264 25 280 225 249 274 275 271 274 211 207 201 224 199 186 190 193 182 178 180 180 184 185 181 179 183 175 183 189 189 190 187 185 180 177 185 195 195 203 205 217 227 238 227
219 244 242 251 244 246 156 266 263 257 253 266 273 259 269 242 206 220 225 205 195 186 180 178 178 184 180 185 182 182 181 178 180 185 191 193 194 185 178 181 191 191 186 192 184 190 191 190 179
210 242 230 262 223 231 181 261 246 232 238 254 255 270 260 265 279 235 228 211 180 179 176 178 179 181 182 175 174 178 177 179 172 179 187 191 191 186 184 184 182 182 184 183 171 165 163 184 223
229 233 245 216 228 210 241 255 262 279 259 250 257 257 254 257 253 264 254 213 186 178 178 176 177 180 177 170 163 153 175 176 170 172 182 177 186 183 178 180 175 173 162 165 170 169 182 174 214
281 243 250 238 216 259 261 271 256 256 259 258 250 244 242 238 247 264 249 189 177 171 169 176 171 175 167 170 173 178 189 182 171 173 178 183 182 184 173 170 165 167 169 179 177 143 153 83 66
252 270 264 272 262 287 266 268 271 250 256 221 242 252 243 224 229 250 222 186 173 173 177 175 178 172 177 178 182 180 178 190 175 163 177 186 185 183 172 163 173 161 132 141 136 131 111 97 29
234 235 245 247 304 283 268 277 265 258 240 241 236 243 251 218 219 235 189 187 206 177 180 182 181 178 179 173 152 123 111 109 154 178 173 169 166 164 165 144 142 135 125 135 124 119 125 144 30
235 226 245 256 231 248 154 268 266 250 255 250 240 229 243 243 235 216 202 187 201 203 185 183 180 179 179 168 166 171 177 177 186 167 155 132 129 121 122 119 125 128 127 127 128 125 125 124 156
243 236 243 240 222 252 246 256 253 250 250 246 251 238 240 249 245 224 202 200 206 197 188 187 182 179 176 175 174 171 177 167 145 137 146 133 119 129 131 130 126 120 115 119 122 110 109 95 113
251 251 254 247 234 244 242 228 265 239 245 246 246 248 245 245 260 262 219 211 211 187 178 183 180 179 171 175 174 178 168 153 152 154 150 149 139 133 129 122 121 120 125 114 107 104 104 126 110
224 235 246 246 230 236 239 215 239 235 235 242 244 253 248 251 256 270 273 217 219 190 175 171 174 177 174 173 170 171 166 160 160 159 157 151 148 149 142 130 112 107 100 99 107 108 97 85 103
216 218 222 216 226 233 241 216 234 244 255 258 249 251 259 255 229 245 256 226 214 202 180 173 173 171 170 166 157 152 153 167 165 165 161 161 161 148 139 130 124 129 117 112 109 103 117 122 107
230 242 234 244 263 276 244 193 241 250 246 245 246 259 263 258 242 246 249 241 203 192 185 173 174 169 165 158 150 156 161 163 164 153 157 152 138 137 134 126 124 125 126 117 119 109 107 104 81
228 230 241 231 241 243 240 229 215 239 241 244 248 248 255 255 261 257 255 209 187 177 171 166 167 172 166 153 160 164 161 155 152 151 146 133 127 130 129 127 123 117 115 111 114 109 116 100 97
253 230 237 251 225 231 247 242 224 244 242 223 229 234 245 263 255 246 237 213 183 169 168 168 167 165 164 167 164 159 153 150 149 141 128 131 124 121 127 122 121 120 124 116 116 125 116 119 130
280 278 272 233 219 215 235 256 265 236 242 197 225 237 247 244 268 273 208 168 172 174 168 170 165 165 168 162 152 152 146 145 141 136 137 137 136 141 132 131 124 124 117 123 125 125 130 133 122